Regional Weather Roundup
Issued by NWS Boston, MA

Home | Current Version | Previous Version | Text Only | Print | Product List | Glossary On
Versions: 1 2 3 4 5 6 7 8 9 10 11 12 13 14 15 16 17 18 19 20 21 22 23 24 25 26 27 28 29 30 31 32 33 34 35 36 37 38 39 40 41 42 43 44 45 46 47 48 49 50
000
ASUS41 KBOX 021510
RWRBOX

REGIONAL WEATHER ROUNDUP
NATIONAL WEATHER SERVICE TAUNTON MA
1000 AM EST MON MAR 02 2015

NOTE:  "FAIR" INDICATES FEW OR NO CLOUDS BELOW 12,000 FEET WITH NO
SIGNIFICANT WEATHER AND/OR OBSTRUCTIONS TO VISIBILITY.  THE FOLLOWING
OBSERVATION LOCATIONS DO NOT REPORT PRESENT WEATHER...PROVINCETOWN...
SMITHFIELD...BLOCK ISLAND...KEENE...AND OXFORD.

MAZALL-021600-
EASTERN MASSACHUSETTS

CITY           SKY/WX    TMP DP  RH WIND       PRES   REMARKS
BOSTON         PTSUNNY   33  21  61 W20       29.94F WCI  21
BEVERLY        PTSUNNY   32  19  58 NW20G36   29.92S WCI  20
LAWRENCE       MOSUNNY   32  21  64 W14G22    29.94S WCI  22
BEDFORD        MOSUNNY   32  20  61 W17G30    29.94S WCI  21
BLUE HILL        N/A     31  23  72 NW14G24   29.90S WCI  21
NORWOOD        PTSUNNY   33  21  61 W14G23    29.95S WCI  23
MARSHFIELD     MOSUNNY   32  27  80 W8        29.95S WCI  25
PLYMOUTH       CLOUDY    30  25  81 W10G22    29.94F WCI  21
TAUNTON        PTSUNNY   32  25  75 W7        29.95F WCI  26
NEW BEDFORD    CLOUDY    31  24  75 W12G21    29.96S WCI  22
$$

MAZALL-021600-
CAPE COD AND THE ISLANDS

CITY           SKY/WX    TMP DP  RH WIND       PRES   REMARKS
FALMOUTH       CLOUDY    30  27  86 W13       29.94S WCI  20
HYANNIS        CLOUDY    32  24  72 W13G21    29.92F WCI  22
CHATHAM        CLOUDY    31  26  82 W9G16     29.93F WCI  23
PROVINCETOWN   PTSUNNY   30  25  80 W17       29.92F WCI  18
NANTUCKET      CLOUDY    31  27  85 W14       29.94F WCI  21
MARTHAS VNYRD  CLOUDY    31  23  72 W10G18    29.95F WCI  22
$$

MAZALL-021600-
CENTRAL AND WESTERN MASSACHUSETTS

CITY           SKY/WX    TMP DP  RH WIND       PRES   REMARKS
WORCESTER      MOSUNNY   28  17  63 W23G32    29.92R WCI  14
FITCHBURG      PTSUNNY   32  18  56 MISG      29.96R
ORANGE         CLOUDY    28  17  63 W12       29.97R WCI  18
SPRINGFIELD    MOSUNNY   29  16  58 NW18G29   30.00S WCI  16
WESTFIELD      FLURRIES  30  17  58 NW21G32   30.03R WCI  17
NORTH ADAMS    LGT SNOW  25  15  66 W15G22    30.03R WCI  13
PITTSFIELD     CLOUDY    23  14  68 NW22G35   29.99R HAZE    WCI   8
$$

RIZALL-021600-
RHODE ISLAND

CITY           SKY/WX    TMP DP  RH WIND       PRES   REMARKS
PROVIDENCE     PTSUNNY   33  21  61 W15G29    29.97F WCI  23
NEWPORT        PTSUNNY   31  22  69 NW13G24   29.97F WCI  21
BLOCK ISLAND   CLOUDY    30  25  80 W15G22    29.99S WCI  19
SMITHFIELD     MOSUNNY   32  19  59 W24G30    29.94R WCI  19
WESTERLY       PTSUNNY   32  23  69 VRB7      30.02R WCI  26
$$

CTZALL-021600-
CONNECTICUT

CITY           SKY/WX    TMP DP  RH WIND       PRES   REMARKS
BRADLEY INTL   PTSUNNY   33  19  56 W17G28    30.03R WCI  22
HARTFORD       MOSUNNY   34  18  52 NW16G23   30.05R WCI  24
BRIDGEPORT     PTSUNNY   34  22  61 NW20G28   30.07R WCI  23
DANBURY        CLOUDY    32  16  51 W15G22    30.07R WCI  22
GROTON         MIX PCPN  31  22  69 NW18G26   30.02R WCI  19
NEW HAVEN      PTSUNNY   32  27  81 NW9       30.06R WCI  24
CHESTER        LGT RAIN  32  23  69 NW9G18    30.03R WCI  24
MERIDEN        CLOUDY    32  22  66 NW10G20   30.06R WCI  24
WILLIMANTIC    LGT RAIN  33  20  58 NW16G25   30.02R WCI  23
OXFORD         PTSUNNY   30  18  59 NW8G26    30.03S WCI  23
$$

MEZ002-015-021-024-NHZ003-005-008-011-012-014-VTZ005-008-021600-
NORTHERN NEW ENGLAND

CITY           SKY/WX    TMP DP  RH WIND       PRES   REMARKS
PORTLAND ME    PTSUNNY   30  20  66 W12       29.88F WCI  20
BANGOR ME      CLOUDY    25  20  81 NW6       29.81F WCI  18
CONCORD NH     CLOUDY    29  19  66 NW9       29.93R WCI  20
MANCHESTER NH  PTSUNNY   31  19  61 NW13G20   29.92R WCI  21
NASHUA NH      CLOUDY    31  19  61 NW16G29   29.95R WCI  20
PORTSMOUTH NH  PTSUNNY   31  21  68 W12G18    29.89S WCI  21
JAFFREY NH     FLURRIES  27  16  63 W12G21    29.92R WCI  17
KEENE NH       CLOUDY    23  19  86 CALM      29.96S
BURLINGTON VT  PTSUNNY   25  12  58 NW15      30.01R WCI  13
MT. WASHINGTON SNOW       0   0 100 NW70G79     N/A  VSB 0   WCI -35
$$

NYZ052-076-021600-
EASTERN NEW YORK

CITY           SKY/WX    TMP DP  RH WIND       PRES   REMARKS
ALBANY         MOSUNNY   27  13  55 NW20G28   30.09R WCI  13
NEW YORK CITY  PTSUNNY   34  23  64 NW24G30   30.12R WCI  21
$$

ANZALL-021600-
MARINE OBSERVATIONS

STATION/POSITION TIME  TEMP    WIND        PRES    VSBY  WAVE
                       AIR SEA DIR/SP/G                  HT/PER
                 (UTC) (F)     (DEG/KT/KT) (MB)    (MI)  (FT/S)
BOSTON BUOY      1450   32 36  280/ 19/ 21 1013.4F         2/ 3
BUZZARDS BAY     1400          270/ 16/ 17 1015.6R
NANTUCKET SOUND  1450   31 30  270/ 14/ 16 1014.0F         1/ 3
MASS BAY-STELLWA 1404   30 35  270/ 14/ 16   N/A    1 7/8  2/ 3
ISLE OF SHOALS   1500   29     290/ 20/ 22 1011.6F
S OF BLOCK IS    1408      37                N/A           4/ 4
$$

......................KEY.........................
  SKY/WX - SKY CONDITION/PRESENT WEATHER
  TMP    - TEMPERATURE IN FAHRENHEIT
  DWPT   - DEWPOINT IN FAHRENHEIT
  RH     - RELATIVE HUMIDITY IN PERCENT
  WIND   - DIRECTION AND SPEED IN MPH
  PRES   - MEAN SEA LEVEL PRESSURE IN INCHES OF HG
  WCI    - WIND CHILL INDEX
  VSB    - VISIBILITY IN MILES
  HX     - HEAT INDEX
  TC     - TEMPERATURE IN CELSIUS
  VRB    - VARIABLE WIND DIRECTION
  N/A    - NOT AVAILABLE


USA.gov is the U.S. government's official web portal to all federal, state and local government web resources and services.